Location: Brno
(49.2000°N, 16.6330°E)
Time: 00:18:56
(UTC+02:00)

Vanguard 3 - Pass Details

Date: 07 August 2021
Orbit: 510 x 3260 km, 33.3° (Epoch: 19 September)

Event Time Altitude Azimuth Distance (km) Brightness Sun altitude
Rises 14:55:27 0° 185° (S) 4,286 11.3 49.5°
Reaches altitude 10° 14:59:53 10° 162° (SSE) 3,832 10.9 49.0°
Maximum altitude 15:04:54 15° 133° (SE) 4,010 10.8 48.4°
Drops below altitude 10° 15:11:07 10° 105° (ESE) 4,984 11.0 47.6°
Sets 15:18:36 0° 87° (E) 6,581 11.4 46.6°
